This demonstration page uses our WeatherBlox Daily Observations layout. Learn more.

Left ArrowRight Arrow

39.51506, -84.39828

Hourly Observations for October 1, 2015

Temp ( °F °C ) Dew Point ( °F °C ) Humidity (%) Winds ( mph kmh ) Pressure ( in mb ) Visibility ( mi km ) Precip ( " mm )
12:15 am 00:15 Clear 57 13.8 47 8.6 71 71 NNE 7 11 30.09 1019 10 16 N/A
12:35 am 00:35 Clear 57 13.8 48 9 73 73 NNE 7 11 30.09 1019 10 16 N/A
12:55 am 00:55 Clear 57 13.8 48 9 73 73 NNE 7 11 30.09 1019 10 16 N/A
1:15 am 01:15 Clear 57 13.8 49 9.2 74 74 NNE 8 13 30.09 1019 10 16 N/A
1:35 am 01:35 Clear 57 13.8 49 9.4 75 75 N 7 11 30.09 1019 10 16 N/A
1:55 am 01:55 Clear 57 13.8 49 9.5 75 75 N 8 13 30.09 1019 10 16 N/A
2:15 am 02:15 Clear 57 13.8 49 9.5 75 75 NNE 8 13 30.09 1019 10 16 N/A
2:35 am 02:35 Mostly Cloudy 57 13.8 49 9.7 76 76 N 9 15 30.09 1019 10 16 N/A
2:55 am 02:55 Cloudy 57 13.8 49 9.6 76 76 NNE 9 15 30.09 1019 10 16 N/A
3:15 am 03:15 Mostly Cloudy 57 13.8 49 9.5 75 75 NE 8 13 30.09 1019 10 16 N/A
3:35 am 03:35 Partly Cloudy 57 13.7 49 9.6 76 76 NNE 7 11 30.09 1019 10 16 N/A
3:55 am 03:55 Clear 55 12.5 48 8.7 78 78 NNE 8 13 30.09 1019 10 16 N/A
4:15 am 04:15 Clear 55 12.5 48 9 79 79 NNE 7 11 30.09 1019 10 16 N/A
4:35 am 04:35 Mostly Cloudy 55 12.5 48 9 79 79 NNE 8 13 30.09 1019 10 16 N/A
4:55 am 04:55 Cloudy 55 12.5 48 8.7 78 78 N 9 15 30.09 1019 10 16 N/A
5:15 am 05:15 Mostly Cloudy 55 12.5 48 8.7 78 78 NNE 9 15 30.09 1019 10 16 N/A
5:35 am 05:35 Partly Cloudy 55 12.5 48 8.7 78 78 NNE 8 13 30.09 1019 10 16 N/A
5:55 am 05:55 Clear 55 12.5 48 8.7 78 78 NNE 8 13 30.09 1019 10 16 N/A
6:15 am 06:15 Clear 55 12.5 48 9 79 79 NNE 9 15 30.09 1019 10 16 N/A
6:35 am 06:35 Clear 55 12.5 48 9 79 79 NNE 6 9 30.09 1019 10 16 N/A
6:55 am 06:55 Clear 55 12.5 49 9.2 80 80 N 5 7 30.12 1020 10 16 N/A
7:15 am 07:15 Clear 54 12.4 49 9.4 82 82 N 7 11 30.12 1020 10 16 N/A
7:35 am 07:35 Sunny 52 11 46 8 82 82 N 8 13 30.12 1020 10 16 N/A
7:55 am 07:55 Sunny 54 12.3 48 9 80 80 NNE 7 11 30.12 1020 10 16 N/A
8:15 am 08:15 Partly Cloudy 55 12.5 48 8.7 78 78 NNE 6 9 30.12 1020 10 16 N/A
8:35 am 08:35 Cloudy 55 12.5 46 8 74 74 NNE 8 13 30.12 1020 10 16 N/A
8:55 am 08:55 Cloudy 57 13.8 47 8.1 69 69 NE 9 15 30.12 1020 10 16 N/A
9:15 am 09:15 Mostly Cloudy 57 13.8 44 6.7 62 62 NE 13 20 30.12 1020 10 16 N/A
9:35 am 09:35 Mostly Cloudy 58 14.2 44 6.8 61 61 NE 10 17 30.12 1020 10 16 N/A
9:55 am 09:55 Cloudy 60 15.3 46 7.6 60 60 NE 13 20 30.12 1020 10 16 N/A
10:15 am 10:15 Mostly Cloudy 60 15.3 45 7.4 60 60 NE 20 31 30.12 1020 10 16 N/A
10:35 am 10:35 Partly Cloudy 60 15.3 44 6.8 57 57 ENE 18 30 30.12 1020 10 16 N/A
10:55 am 10:55 Sunny 61 16 44 6.8 55 55 NE 13 20 30.12 1020 10 16 N/A
11:15 am 11:15 Sunny 61 16 44 6.4 53 53 ENE 17 28 30.12 1020 10 16 N/A
11:35 am 11:35 Sunny 61 16 44 6.5 54 54 ENE 16 26 30.12 1020 10 16 N/A
11:55 am 11:55 Sunny 61 16 44 6.6 54 54 NE 12 19 30.12 1020 10 16 N/A
12:15 pm 12:15 Sunny 61 16.1 44 6.5 53 53 ENE 10 17 30.12 1020 10 16 N/A
12:35 pm 12:35 Sunny 61 16 44 6.5 54 54 NE 14 22 30.12 1020 10 16 N/A
12:55 pm 12:55 Sunny 61 16 44 6.5 54 54 NE 15 24 30.12 1020 10 16 N/A
1:15 pm 13:15 Sunny 61 16.3 44 6.6 53 53 NE 13 20 30.12 1020 10 16 N/A
1:35 pm 13:35 Partly Cloudy 62 16.6 44 6.8 53 53 NE 13 20 30.09 1019 10 16 N/A
1:55 pm 13:55 Partly Cloudy 62 16.5 44 6.9 53 53 NE 8 13 30.09 1019 10 16 N/A
2:15 pm 14:15 Partly Cloudy 62 16.6 44 6.8 53 53 NE 13 20 30.09 1019 10 16 N/A
2:35 pm 14:35 Mostly Cloudy with Light Rain 61 16.1 44 6.8 54 54 NE 10 17 30.12 1020 10 16 N/A
2:55 pm 14:55 Mostly Cloudy 61 16.2 45 7.1 55 55 N 10 17 30.12 1020 10 16 N/A
3:15 pm 15:15 Partly Cloudy 62 16.6 44 6.8 53 53 NNE 10 17 30.09 1019 10 16 N/A
3:35 pm 15:35 Sunny 62 16.8 44 6.9 52 52 NNE 10 17 30.06 1018 10 16 N/A
3:55 pm 15:55 Sunny 64 17.9 45 7.4 50 50 NE 16 26 30.09 1019 10 16 N/A
4:15 pm 16:15 Sunny 63 17.3 44 6.8 50 50 NNE 16 26 30.06 1018 10 16 N/A
4:35 pm 16:35 Sunny 63 17.3 45 7 51 51 NNE 12 19 30.06 1018 10 16 N/A
4:55 pm 16:55 Sunny 63 17.1 45 7.4 53 53 NE 12 19 30.09 1019 10 16 N/A
5:15 pm 17:15 Sunny 63 17 46 7.8 55 55 NE 16 26 30.09 1019 10 16 N/A
5:35 pm 17:35 Partly Cloudy 62 16.7 46 8 57 57 NNE 15 24 30.09 1019 10 16 N/A
5:55 pm 17:55 Sunny 62 16.6 47 8.4 59 59 NNE 13 20 30.09 1019 10 16 N/A
6:15 pm 18:15 Sunny 61 16 46 8 59 59 NNE 13 20 30.12 1020 10 16 N/A
6:35 pm 18:35 Sunny 61 16 47 8.1 60 60 NNE 16 26 30.12 1020 10 16 N/A
6:55 pm 18:55 Sunny 60 15.6 47 8.3 62 62 NNE 10 17 30.12 1020 10 16 N/A
7:15 pm 19:15 Sunny 60 15.3 46 8 62 62 NNE 13 20 30.12 1020 10 16 N/A
7:35 pm 19:35 Clear 60 15.3 47 8.1 62 62 NNE 16 26 30.15 1021 10 16 N/A
7:55 pm 19:55 Clear 60 15.3 47 8.5 64 64 NNE 12 19 30.15 1021 10 16 N/A
8:15 pm 20:15 Partly Cloudy 60 15.3 48 9 66 66 NNE 10 17 30.15 1021 10 16 N/A
8:35 pm 20:35 Mostly Cloudy 60 15.3 48 9 66 66 NE 16 26 30.15 1021 10 16 N/A
8:55 pm 20:55 Mostly Cloudy 59 15 48 8.9 67 67 NNE 16 26 30.15 1021 10 16 N/A
9:15 pm 21:15 Mostly Cloudy 58 14.4 47 8.3 67 67 NE 13 20 30.15 1021 10 16 N/A
9:35 pm 21:35 Cloudy 58 14.4 47 8.2 67 67 NE 14 22 30.15 1021 10 16 N/A
9:55 pm 21:55 Cloudy 58 14.2 46 8 67 67 NNE 12 19 30.15 1021 10 16 N/A
10:15 pm 22:15 Cloudy 60 15.3 48 9 66 66 NE 13 20 30.15 1021 10 16 N/A
10:35 pm 22:35 Cloudy 59 15 48 8.7 66 66 NNE 13 20 30.15 1021 10 16 N/A
10:55 pm 22:55 Cloudy 59 15.1 48 8.9 67 67 NE 14 22 30.15 1021 10 16 N/A
11:15 pm 23:15 Cloudy 60 15.3 48 9 66 66 NE 9 15 30.15 1021 10 16 N/A
11:35 pm 23:35 Cloudy 60 15.3 48 9.1 67 67 NE 10 17 30.15 1021 10 16 N/A
11:55 pm 23:55 Cloudy 60 15.3 48 9.1 67 67 NE 12 19 30.15 1021 10 16 N/A

Powered by AerisWeather